• In Belarus
  • List of Countries
  • For 7 days
  • Water Temperature
  • Satellite Maps
  • Weather Map
  • Weather Widgets
  • user-avatar
    Login

    Hourly Weather Mundahan

    Today, 20 September, Thursday

    Time Temperature Precipitation Wind Pressure Humidity
    00:00 +27°C° 0 mm 1 mps 741 mmHg 87%
    01:00 +27°C° 0 mm 1 mps 741 mmHg 88%
    02:00 +26°C° 0 mm 1 mps 741 mmHg 90%
    03:00 +26°C° 0 mm 1 mps 741 mmHg 91%
    04:00 +26°C° 0 mm 1 mps 741 mmHg 92%
    05:00 +26°C° 0 mm 2 mps 741 mmHg 91%
    06:00 +26°C° 0 mm 2 mps 742 mmHg 90%
    07:00 +27°C° 0 mm 2 mps 742 mmHg 89%
    08:00 +28°C° 0 mm 3 mps 742 mmHg 83%
    09:00 +30°C° 0 mm 3 mps 742 mmHg 76%
    10:00 +33°C° 0 mm 3 mps 742 mmHg 69%
    11:00 +33°C° 0 mm 3 mps 742 mmHg 65%
    12:00 +34°C° 0 mm 3 mps 741 mmHg 61%
    13:00 +35°C° 0 mm 3 mps 741 mmHg 56%
    14:00 +35°C° 0 mm 2 mps 740 mmHg 56%
    15:00 +35°C° 0 mm 2 mps 740 mmHg 56%
    16:00 +35°C° 0 mm 2 mps 739 mmHg 56%
    17:00 +33°C° 0 mm 1 mps 739 mmHg 59%
    18:00 +31°C° 0 mm 1 mps 740 mmHg 63%
    19:00 +30°C° 0 mm 1 mps 740 mmHg 67%
    20:00 +29°C° 0 mm 1 mps 740 mmHg 69%
    21:00 +28°C° 0 mm 1 mps 741 mmHg 72%
    22:00 +28°C° 0 mm 1 mps 741 mmHg 75%
    23:00 +27°C° 0 mm 1 mps 741 mmHg 78%

    Tomorrow, 21 September, Friday

    Time Temperature Precipitation Wind Pressure Humidity
    00:00 +27°C° 0 mm 1 mps 741 mmHg 80%
    01:00 +26°C° 0 mm 1 mps 741 mmHg 83%
    02:00 +26°C° 0 mm 1 mps 741 mmHg 84%
    03:00 +26°C° 0 mm 1 mps 741 mmHg 86%
    04:00 +25°C° 0 mm 1 mps 741 mmHg 87%
    05:00 +26°C° 0 mm 2 mps 741 mmHg 87%
    06:00 +26°C° 0 mm 2 mps 742 mmHg 86%
    07:00 +26°C° 0 mm 2 mps 742 mmHg 86%
    08:00 +28°C° 0 mm 2 mps 742 mmHg 79%
    09:00 +30°C° 0 mm 3 mps 742 mmHg 72%
    10:00 +33°C° 0 mm 3 mps 743 mmHg 66%
    11:00 +34°C° 0 mm 3 mps 742 mmHg 62%
    12:00 +35°C° 0 mm 3 mps 741 mmHg 58%
    13:00 +36°C° 0 mm 2 mps 741 mmHg 53%
    14:00 +36°C° 0 mm 2 mps 740 mmHg 54%
    15:00 +36°C° 0 mm 2 mps 740 mmHg 54%
    16:00 +35°C° 0 mm 2 mps 739 mmHg 55%
    17:00 +33°C° 0 mm 1 mps 739 mmHg 59%
    18:00 +31°C° 0 mm 1 mps 740 mmHg 64%
    19:00 +30°C° 0 mm 1 mps 740 mmHg 69%
    20:00 +29°C° 0 mm 1 mps 741 mmHg 71%
    21:00 +29°C° 0 mm 1 mps 741 mmHg 73%
    22:00 +28°C° 0 mm 2 mps 742 mmHg 76%
    23:00 +28°C° 0 mm 2 mps 742 mmHg 79%

    Day after tomorrow, 22 September, Saturday

    Time Temperature Precipitation Wind Pressure Humidity
    00:00 +27°C° 0 mm 2 mps 742 mmHg 82%
    01:00 +27°C° 0 mm 2 mps 741 mmHg 85%
    02:00 +26°C° 0.1 mm 2 mps 741 mmHg 87%
    03:00 +26°C° 0.1 mm 2 mps 741 mmHg 88%
    04:00 +25°C° 0.1 mm 2 mps 741 mmHg 90%
    05:00 +26°C° 0 mm 2 mps 742 mmHg 89%
    06:00 +26°C° 0 mm 2 mps 742 mmHg 88%
    07:00 +26°C° 0 mm 2 mps 742 mmHg 87%
    08:00 +28°C° 0 mm 2 mps 743 mmHg 80%
    09:00 +30°C° 0 mm 3 mps 743 mmHg 73%
    10:00 +33°C° 0 mm 3 mps 743 mmHg 66%
    11:00 +33°C° 0 mm 3 mps 743 mmHg 62%
    12:00 +34°C° 0 mm 3 mps 742 mmHg 58%
    13:00 +35°C° 0 mm 2 mps 741 mmHg 54%
    14:00 +35°C° 0.1 mm 2 mps 741 mmHg 55%
    15:00 +35°C° 0.1 mm 2 mps 740 mmHg 55%
    16:00 +34°C° 0.1 mm 1 mps 740 mmHg 55%
    17:00 +32°C° 0.1 mm 1 mps 740 mmHg 61%
    18:00 +31°C° 0.1 mm 1 mps 740 mmHg 66%
    19:00 +29°C° 0.1 mm 2 mps 741 mmHg 71%
    20:00 +29°C° 0.2 mm 1 mps 742 mmHg 74%
    21:00 +28°C° 0.2 mm 1 mps 742 mmHg 78%
    22:00 +28°C° 0.2 mm 1 mps 743 mmHg 81%
    23:00 +28°C° 0 mm 1 mps 743 mmHg 83%

    23 September, Sunday

    Time Temperature Precipitation Wind Pressure Humidity
    00:00 +27°C° 0 mm 1 mps 743 mmHg 84%
    01:00 +27°C° 0 mm 1 mps 742 mmHg 86%
    02:00 +27°C° 0.9 mm 1 mps 742 mmHg 87%
    03:00 +27°C° 0.9 mm 1 mps 742 mmHg 89%
    04:00 +26°C° 0.9 mm 1 mps 742 mmHg 90%
    05:00 +26°C° 0.1 mm 1 mps 742 mmHg 90%
    06:00 +27°C° 0.1 mm 1 mps 743 mmHg 89%
    07:00 +27°C° 0.1 mm 1 mps 743 mmHg 88%
    08:00 +28°C° 0.8 mm 1 mps 744 mmHg 82%
    09:00 +30°C° 0.8 mm 1 mps 744 mmHg 75%
    10:00 +31°C° 0.8 mm 1 mps 744 mmHg 69%
    11:00 +32°C° 2.5 mm 1 mps 743 mmHg 67%
    12:00 +32°C° 2.5 mm 1 mps 742 mmHg 66%
    13:00 +31°C° 2.5 mm 0 mps 742 mmHg 64%
    14:00 +33°C° 1.6 mm 1 mps 741 mmHg 65%
    15:00 +32°C° 1.6 mm 1 mps 741 mmHg 67%
    16:00 +32°C° 1.6 mm 1 mps 740 mmHg 68%
    17:00 +31°C° 0.2 mm 1 mps 741 mmHg 73%
    18:00 +30°C° 0.2 mm 1 mps 741 mmHg 77%
    19:00 +28°C° 0.2 mm 1 mps 741 mmHg 82%
    20:00 +28°C° 0.4 mm 1 mps 742 mmHg 83%
    21:00 +28°C° 0.4 mm 1 mps 742 mmHg 84%
    22:00 +27°C° 0.4 mm 1 mps 743 mmHg 86%
    23:00 +25°C° 0.4 mm 0 mps 743 mmHg 86%

    24 September, Monday

    Time Temperature Precipitation Wind Pressure Humidity
    00:00 +25°C° 0.4 mm 0 mps 742 mmHg 87%
    01:00 +25°C° 0.4 mm 0 mps 742 mmHg 87%
    02:00 +24°C° 0.4 mm 0 mps 742 mmHg 88%
    03:00 +24°C° 0.4 mm 0 mps 741 mmHg 89%
    04:00 +24°C° 0.4 mm 0 mps 741 mmHg 89%
    05:00 +24°C° 0.6 mm 0 mps 742 mmHg 88%
    06:00 +25°C° 0.6 mm 0 mps 742 mmHg 87%
    07:00 +25°C° 0.6 mm 0 mps 743 mmHg 86%
    08:00 +29°C° 0.3 mm 1 mps 743 mmHg 81%
    09:00 +30°C° 0.3 mm 1 mps 743 mmHg 75%
    10:00 +31°C° 0.3 mm 2 mps 743 mmHg 69%
    11:00 +32°C° 0.6 mm 2 mps 742 mmHg 66%
    12:00 +34°C° 0.6 mm 2 mps 742 mmHg 63%
    13:00 +34°C° 0.6 mm 2 mps 741 mmHg 60%
    14:00 +34°C° 0.4 mm 2 mps 740 mmHg 61%
    15:00 +33°C° 0.4 mm 1 mps 740 mmHg 63%
    16:00 +33°C° 0.4 mm 1 mps 739 mmHg 64%
    17:00 +32°C° 0.5 mm 1 mps 740 mmHg 70%
    18:00 +30°C° 0.5 mm 1 mps 740 mmHg 75%
    19:00 +27°C° 0.5 mm 0 mps 741 mmHg 80%
    20:00 +28°C° 0.9 mm 1 mps 741 mmHg 82%
    21:00 +28°C° 0.9 mm 1 mps 741 mmHg 84%
    22:00 +27°C° 0.9 mm 1 mps 742 mmHg 87%
    23:00 +27°C° 0.1 mm 1 mps 742 mmHg 87%

    25 September, Tuesday

    Time Temperature Precipitation Wind Pressure Humidity
    00:00 +27°C° 0.1 mm 1 mps 741 mmHg 88%
    01:00 +27°C° 0.1 mm 1 mps 741 mmHg 88%
    02:00 +26°C° 1.3 mm 1 mps 741 mmHg 90%
    03:00 +26°C° 1.3 mm 1 mps 740 mmHg 91%
    04:00 +24°C° 1.3 mm 0 mps 740 mmHg 92%
    05:00 +26°C° 0.2 mm 1 mps 741 mmHg 91%
    06:00 +26°C° 0.2 mm 1 mps 741 mmHg 89%
    07:00 +27°C° 0.2 mm 1 mps 742 mmHg 88%
    08:00 +29°C° 0.1 mm 1 mps 742 mmHg 81%
    09:00 +30°C° 0.1 mm 2 mps 742 mmHg 75%
    10:00 +32°C° 0.1 mm 2 mps 742 mmHg 68%
    11:00 +32°C° 0.1 mm 2 mps 741 mmHg 65%
    12:00 +34°C° 0.1 mm 2 mps 740 mmHg 62%
    13:00 +35°C° 0.1 mm 3 mps 740 mmHg 60%
    14:00 +35°C° 0.1 mm 3 mps 739 mmHg 61%
    15:00 +35°C° 0.1 mm 2 mps 739 mmHg 62%
    16:00 +34°C° 0.1 mm 2 mps 738 mmHg 64%
    17:00 +32°C° 0.1 mm 2 mps 739 mmHg 68%
    18:00 +31°C° 0.1 mm 1 mps 739 mmHg 73%
    19:00 +29°C° 0.1 mm 1 mps 739 mmHg 77%
    20:00 +29°C° 0.2 mm 1 mps 740 mmHg 78%
    21:00 +28°C° 0.2 mm 1 mps 740 mmHg 80%
    22:00 +28°C° 0.2 mm 1 mps 741 mmHg 81%
    23:00 +27°C° 0.3 mm 1 mps 740 mmHg 83%
    Show more